Regional Weather Roundup
Issued by NWS

Home | Current Version | Previous Version | Graphics & Text | Print | Product List | Glossary On
Versions: 1 2 3 4 5 6 7 8 9 10 11 12 13 14 15 16 17 18 19 20 21 22 23 24 25 26 27 28 29 30 31 32 33 34 35 36 37 38 39 40 41 42 43 44 45 46 47 48 49 50
000
ASUS43 KOAX 210602
RWRNE

WEATHER ROUNDUP FOR NEBRASKA
NATIONAL WEATHER SERVICE OMAHA NE
100 AM CDT MON APR 21 2014

NOTES: SATELLITE DATA IS BEING USED TO AUGMENT CLOUD COVER ABOVE
       12000 FEET.
       "FAIR" INDICATES FEW OR NO CLOUDS BELOW 12,000 FEET WITH NO
       SIGNIFICANT WEATHER AND/OR OBSTRUCTIONS TO VISIBILITY.

  * THESE STATIONS DO NOT REPORT WEATHER SUCH AS RAIN...SNOW OR FOG.

NEZ001>004-019>022-054>056-210700-
NEBRASKA PANHANDLE

CITY           SKY/WX    TMP DP  RH WIND       PRES   REMARKS
SCOTTSBLUFF    CLEAR     51  30  44 N9        30.13R
6HR MIN TEMP:  51; 6HR MAX TEMP:  77;

ALLIANCE       CLEAR     45  32  60 N10       30.10R
6HR MIN TEMP:  44; 6HR MAX TEMP:  73;

CHADRON        CLEAR     46  32  58 NW3       30.14R
6HR MIN TEMP:  41; 6HR MAX TEMP:  71;

KIMBALL        CLEAR     50  32  50 NE10G20   30.13R
SIDNEY         CLEAR     48  35  60 N12       30.12R
6HR MIN TEMP:  48; 6HR MAX TEMP:  76;

$$

NEZ057>060-069>072-079>082-210700-
SOUTHWEST NEBRASKA

CITY           SKY/WX    TMP DP  RH WIND       PRES   REMARKS
NORTH PLATTE   MOCLDY    58  53  84 N13       30.02R THUNDER
6HR MIN TEMP:  53; 6HR MAX TEMP:  74; 6HR PCP:  0.03;

IMPERIAL       CLEAR     54  44  69 N13       30.02R
6HR MIN TEMP:  51; 6HR MAX TEMP:  76;

LEXINGTON      MOCLDY    59  54  83 SW3       29.97R
MCCOOK         PTCLDY    56  53  90 SW6       29.98R
6HR MIN TEMP:  56; 6HR MAX TEMP:  70;

OGALLALA       CLEAR     58  34  40 N18       30.04R
$$

NEZ005>010-023>029-035>040-094-210700-
NORTH CENTRAL NEBRASKA

CITY           SKY/WX    TMP DP  RH WIND       PRES   REMARKS
VALENTINE      PTCLDY    58  29  33 N21G30    30.02R
6HR MIN TEMP:  58; 6HR MAX TEMP:  73; 6HR PCP:  0.07;

AINSWORTH      PTCLDY    57  37  46 N23G29    30.01R
BROKEN BOW     MOCLDY    59  52  77 NE7       29.99R THUNDER
6HR MIN TEMP:  53; 6HR MAX TEMP:  74; 6HR PCP:  0.02;

O`NEILL        CLOUDY    63  46  54 W9        29.93R
ORD            TSTM      61  53  75 W3        29.99R
6HR MIN TEMP:  58; 6HR MAX TEMP:  75; 6HR PCP:  0.01;

THEDFORD       PTCLDY    59  38  44 N14       30.03R
$$

NEZ041-046>049-061>064-073>077-083>087-210700-
SOUTH CENTRAL NEBRASKA

CITY           SKY/WX    TMP DP  RH WIND       PRES   REMARKS
GRAND ISLAND   FAIR      61  52  72 SW13      29.96R
6HR MIN TEMP:  61; 6HR MAX TEMP:  74;

AURORA         FAIR      60  55  81 S8        29.96S
HASTINGS       FAIR      59  52  77 SW6       29.96S
6HR MIN TEMP:  59; 6HR MAX TEMP:  72;

HEBRON         MOCLDY    62  56  80 S10       29.96S
HOLDREGE       FAIR      58  54  86 S8        29.97R
KEARNEY *      FAIR      57  54  88 S12       29.97R
YORK           CLOUDY    59  55  88 S7        29.97R
$$

NEZ011>018-030>034-042>045-210700-
NORTHEAST NEBRASKA

CITY           SKY/WX    TMP DP  RH WIND       PRES   REMARKS
NORFOLK        FAIR      62  53  72 S14       29.93R
6HR MIN TEMP:  62; 6HR MAX TEMP:  71;

ALBION         MOCLDY    61  52  71 NW12G21   29.99R
BLAIR          CLOUDY    62  55  77 S10       29.95S
COLUMBUS *     FAIR      55  52  88 S12       29.95S
FREMONT        CLOUDY    64  55  74 S8        29.96R
TEKAMAH        FAIR      64  56  75 SE14      29.94S
6HR MIN TEMP:  64; 6HR MAX TEMP:  77; 6HR PCP: TRACE;

$$

NEZ050>053-065>068-078-088>093-210700-
SOUTHEAST NEBRASKA

CITY           SKY/WX    TMP DP  RH WIND       PRES   REMARKS
LINCOLN        FAIR      60  54  80 S6        29.97R
6HR MIN TEMP:  57; 6HR MAX TEMP:  66;

OMAHA EPPLEY   CLOUDY    62  58  86 S5        29.96R
6HR MIN TEMP:  62; 6HR MAX TEMP:  70; 6HR PCP:  0.02;

BEATRICE       FAIR      62  55  78 S7        29.97S
FALLS CITY     FAIR      65  57  75 S9        29.97R
6HR MIN TEMP:  65; 6HR MAX TEMP:  76; 6HR PCP:  0.01;

NEBRASKA CITY  CLOUDY    64  58  80 SW10      29.97S
PLATTSMOUTH    CLOUDY    64  56  77 S12       29.96S
$$

NEZ044-045-051>053-067-210700-
OMAHA AREA

CITY           SKY/WX    TMP DP  RH WIND       PRES   REMARKS
OMAHA EPPLEY   CLOUDY    62  58  86 S5        29.96R
6HR MIN TEMP:  62; 6HR MAX TEMP:  70; 6HR PCP:  0.02;

BLAIR          CLOUDY    62  55  77 S10       29.95S
FREMONT        CLOUDY    64  55  74 S8        29.96R
MILLARD        CLOUDY    62  55  78 SE3       29.95S
OFFUTT AFB     CLOUDY    59  59 100 E2        29.96R
PLATTSMOUTH    CLOUDY    64  56  77 S12       29.96S
WAHOO          CLOUDY    62  55  77 S10       29.95S
$$



USA.gov is the U.S. government's official web portal to all federal, state and local government web resources and services.